COSMOS 1275 DEB, 17637

Orbit data source: Space-Track

COSMOS 1275 DEB, 17637 is space debris in LEO originally from a launch on Thu, 04 Jun 1981 UTC launched from the Plesetsk Missile And Space Complex (PKMTR). Debris objects in space refer to the collection of defunct objects orbiting the Earth. Examples of debris include non-operational satellites, rocket bodies, and fragments generated from explosions, collisions, or faulty payload assembly.

Loading next visibility...
Identifier
17637, 1981-053LG
Orbit
LEO
Country
Flag of CISCIS
Related business
Manufacturer
Unknown
Mission
Spacecraft
Bus & Motor
Unknown
Mass
Unknown
Launch date (UTC)
1981-06-04 (45 years ago)
Launch vehicle
Unknown
Launch site
Plesetsk Missile And Space Complex (PKMTR)
Object type
Payload
Rocket body
Debris
Shape & HBR
Unknown shape, 0.1 m
Radar Cross Section
Small (<0.1 m²)

Expand to show TLE details & history
Last TLE update: 2 days ago

TLE from 2 days ago
0 COSMOS 1275 DEB
1 17637U 81053LG  25348.62379240  .00001434  00000-0  16333-2 0  9996
2 17637  83.0692 297.2564 0134178  32.5879 151.2042 13.65614029 11382
Epoch: 2025-12-14T14:58Z
TLE epoch observation values (Epoch: 2025-12-14T14:58:15.663Z)
Latitude
-4.62932°
Longitude
169.71819°
Altitude
1,106.227 km
Speed
7.256 km/s
True Right ascension
07h 51m 16s
True Declination
-4° 36' 11"
Sunlit
Object was in full shadow at epoch
Visualization orbit readout
Latitude
Unknown
Longitude
Unknown
Altitude
Unknown
Speed
Unknown
Apparent Right ascension
Unknown
Apparent Declination
Unknown
Sunlit
N/A
Visualization observer readout
Local Sidereal Time
05:08:55
Azimuth
Unknown
Elevation
Unknown
Doppler factor
Unknown
Orbital elements
Apogee altitude
1,111.682 km
Perigee altitude
913.349 km
Semi-major axis
7,390.653 km
Eccentricity
0.01342
Inclination
83.0692°
RAAN
297.2564°
Arg. of periapsis
32.5879°
True anomaly
151.93408°
Mean anomaly
151.2042°
Eccentric anomaly
151.5702°
Mean motion
3.41601 °/min
Orbital period
105.39 mins
BSTAR
0.0016333
Loading maneuver chart data...
Computing Atmospheric mass density...
Loading historical data...
Loading historical data...
Loading historical data...
Loading historical data...
Loading historical data...
Loading historical data...
Loading historical data...

Documentation

Showing up to 5 results
|